Year,Month,Day,Hour,Minute,Value (Times are PST for temperature in C)
2006,06,29,00,00,12.20
2006,06,29,00,01,12.20
2006,06,29,00,02,12.20
2006,06,29,00,03,12.20
2006,06,29,00,04,12.10
2006,06,29,00,05,12.10
2006,06,29,00,06,12.10
2006,06,29,00,07,12.10
2006,06,29,00,08,12.10
2006,06,29,00,09,12.10
2006,06,29,00,10,12.10
2006,06,29,00,11,12.10
2006,06,29,00,12,12.10
2006,06,29,00,13,12.10
2006,06,29,00,14,12.10
2006,06,29,00,15,12.00
2006,06,29,00,16,12.00
2006,06,29,00,17,12.00
2006,06,29,00,18,12.00
2006,06,29,00,19,11.90
2006,06,29,00,20,11.90
2006,06,29,00,21,11.90
2006,06,29,00,22,11.90
2006,06,29,00,23,11.90
2006,06,29,00,24,11.90
2006,06,29,00,25,11.80
2006,06,29,00,26,11.80
2006,06,29,00,27,11.80
2006,06,29,00,28,11.80
2006,06,29,00,29,11.80
2006,06,29,00,30,11.80
2006,06,29,00,31,11.80
2006,06,29,00,32,11.80
2006,06,29,00,33,11.80
2006,06,29,00,34,11.80
2006,06,29,00,35,11.80
2006,06,29,00,36,11.70
2006,06,29,00,37,11.70
2006,06,29,00,38,11.70
2006,06,29,00,39,11.60
2006,06,29,00,40,11.60
2006,06,29,00,41,11.60
2006,06,29,00,42,11.60
2006,06,29,00,43,11.60
2006,06,29,00,44,11.60
2006,06,29,00,45,11.60
2006,06,29,00,46,11.60
2006,06,29,00,47,11.40
2006,06,29,00,48,11.40
2006,06,29,00,49,11.40
2006,06,29,00,50,11.40
2006,06,29,00,51,11.40
2006,06,29,00,52,11.40
2006,06,29,00,53,11.40
2006,06,29,00,54,11.40
2006,06,29,00,55,11.40
2006,06,29,00,56,11.40
2006,06,29,00,57,11.40
2006,06,29,00,58,11.40
2006,06,29,00,59,11.40
2006,06,29,01,00,11.40
2006,06,29,01,01,11.40
2006,06,29,01,02,11.40
2006,06,29,01,03,11.40
2006,06,29,01,04,11.40
2006,06,29,01,05,11.40
2006,06,29,01,06,11.40
2006,06,29,01,07,11.40
2006,06,29,01,08,11.40
2006,06,29,01,09,11.40
2006,06,29,01,10,11.40
2006,06,29,01,11,11.40
2006,06,29,01,12,11.40
2006,06,29,01,13,11.40
2006,06,29,01,14,11.40
2006,06,29,01,15,11.40
2006,06,29,01,16,11.40
2006,06,29,01,17,11.40
2006,06,29,01,18,11.30
2006,06,29,01,19,11.30
2006,06,29,01,20,11.30
2006,06,29,01,21,11.20
2006,06,29,01,22,11.10
2006,06,29,01,23,11.10
2006,06,29,01,24,11.10
2006,06,29,01,25,11.10
2006,06,29,01,26,11.10
2006,06,29,01,27,11.00
2006,06,29,01,28,10.90
2006,06,29,01,29,10.90
2006,06,29,01,30,10.90
2006,06,29,01,31,10.90
2006,06,29,01,32,10.90
2006,06,29,01,33,10.90
2006,06,29,01,34,10.90
2006,06,29,01,35,10.90
2006,06,29,01,36,10.80
2006,06,29,01,37,10.80
2006,06,29,01,38,10.80
2006,06,29,01,39,10.80
2006,06,29,01,40,10.80
2006,06,29,01,41,10.80
2006,06,29,01,42,10.80
2006,06,29,01,43,10.90
2006,06,29,01,44,10.90
2006,06,29,01,45,10.90
2006,06,29,01,46,10.90
2006,06,29,01,47,10.90
2006,06,29,01,48,10.90
2006,06,29,01,49,10.90
2006,06,29,01,50,10.90
2006,06,29,01,51,10.90
2006,06,29,01,52,10.90
2006,06,29,01,53,10.90
2006,06,29,01,54,10.90
2006,06,29,01,55,10.90
2006,06,29,01,56,10.90
2006,06,29,01,57,10.90
2006,06,29,01,58,10.90
2006,06,29,01,59,10.90
2006,06,29,02,00,10.90
2006,06,29,02,01,10.80
2006,06,29,02,02,10.80
2006,06,29,02,03,10.80
2006,06,29,02,04,10.80
2006,06,29,02,05,10.70
2006,06,29,02,06,10.70
2006,06,29,02,07,10.70
2006,06,29,02,08,10.60
2006,06,29,02,09,10.60
2006,06,29,02,10,10.60
2006,06,29,02,11,10.60
2006,06,29,02,12,10.60
2006,06,29,02,13,10.40
2006,06,29,02,14,10.40
2006,06,29,02,15,10.40
2006,06,29,02,16,10.40
2006,06,29,02,17,10.40
2006,06,29,02,18,10.40
2006,06,29,02,19,10.40
2006,06,29,02,20,10.40
2006,06,29,02,21,10.40
2006,06,29,02,22,10.40
2006,06,29,02,23,10.40
2006,06,29,02,24,10.40
2006,06,29,02,25,10.40
2006,06,29,02,26,10.40
2006,06,29,02,27,10.40
2006,06,29,02,28,10.40
2006,06,29,02,29,10.40
2006,06,29,02,30,10.40
2006,06,29,02,31,10.40
2006,06,29,02,32,10.40
2006,06,29,02,33,10.40
2006,06,29,02,34,10.40
2006,06,29,02,35,10.40
2006,06,29,02,36,10.40
2006,06,29,02,37,10.40
2006,06,29,02,38,10.40
2006,06,29,02,39,10.40
2006,06,29,02,40,10.30
2006,06,29,02,41,10.30
2006,06,29,02,42,10.30
2006,06,29,02,43,10.20
2006,06,29,02,44,10.20
2006,06,29,02,45,10.20
2006,06,29,02,46,10.10
2006,06,29,02,47,10.10
2006,06,29,02,48,10.10
2006,06,29,02,49,10.10
2006,06,29,02,50,10.10
2006,06,29,02,51,10.10
2006,06,29,02,52,10.10
2006,06,29,02,53,10.10
2006,06,29,02,54,10.10
2006,06,29,02,55,10.10
2006,06,29,02,56,10.10
2006,06,29,02,57,10.10
2006,06,29,02,58,10.10
2006,06,29,02,59,10.10
2006,06,29,03,00,10.00
2006,06,29,03,01,9.90
2006,06,29,03,02,9.90
2006,06,29,03,03,9.90
2006,06,29,03,04,9.90
2006,06,29,03,05,9.90
2006,06,29,03,06,9.90
2006,06,29,03,07,9.90
2006,06,29,03,08,9.90
2006,06,29,03,09,9.90
2006,06,29,03,10,9.90
2006,06,29,03,11,10.00
2006,06,29,03,12,10.10
2006,06,29,03,13,10.10
2006,06,29,03,14,10.10
2006,06,29,03,15,10.10
2006,06,29,03,16,10.10
2006,06,29,03,17,10.10
2006,06,29,03,18,10.10
2006,06,29,03,19,10.00
2006,06,29,03,20,10.00
2006,06,29,03,21,9.90
2006,06,29,03,22,9.90
2006,06,29,03,23,9.90
2006,06,29,03,24,9.90
2006,06,29,03,25,9.90
2006,06,29,03,26,9.90
2006,06,29,03,27,9.90
2006,06,29,03,28,9.90
2006,06,29,03,29,9.90
2006,06,29,03,30,9.90
2006,06,29,03,31,9.90
2006,06,29,03,32,9.90
2006,06,29,03,33,9.90
2006,06,29,03,34,9.90
2006,06,29,03,35,9.90
2006,06,29,03,36,9.90
2006,06,29,03,37,9.90
2006,06,29,03,38,9.90
2006,06,29,03,39,9.90
2006,06,29,03,40,9.90
2006,06,29,03,41,9.90
2006,06,29,03,42,9.90
2006,06,29,03,43,9.90
2006,06,29,03,44,9.80
2006,06,29,03,45,9.80
2006,06,29,03,46,9.80
2006,06,29,03,47,9.70
2006,06,29,03,48,9.70
2006,06,29,03,49,9.70
2006,06,29,03,50,9.70
2006,06,29,03,51,9.70
2006,06,29,03,52,9.60
2006,06,29,03,53,9.60
2006,06,29,03,54,9.60
2006,06,29,03,55,9.60
2006,06,29,03,56,9.60
2006,06,29,03,57,9.60
2006,06,29,03,58,9.60
2006,06,29,03,59,9.60
2006,06,29,04,00,9.60
2006,06,29,04,01,9.60
2006,06,29,04,02,9.70
2006,06,29,04,03,9.70
2006,06,29,04,04,9.70
2006,06,29,04,05,9.70
2006,06,29,04,06,9.70
2006,06,29,04,07,9.70
2006,06,29,04,08,9.70
2006,06,29,04,09,9.70
2006,06,29,04,10,9.70
2006,06,29,04,11,9.70
2006,06,29,04,12,9.70
2006,06,29,04,13,9.60
2006,06,29,04,14,9.60
2006,06,29,04,15,9.60
2006,06,29,04,16,9.60
2006,06,29,04,17,9.60
2006,06,29,04,18,9.50
2006,06,29,04,19,9.50
2006,06,29,04,20,9.50
2006,06,29,04,21,9.40
2006,06,29,04,22,9.40
2006,06,29,04,23,9.30
2006,06,29,04,24,9.30
2006,06,29,04,25,9.30
2006,06,29,04,26,9.30
2006,06,29,04,27,9.30
2006,06,29,04,28,9.30
2006,06,29,04,29,9.30
2006,06,29,04,30,9.30
2006,06,29,04,31,9.20
2006,06,29,04,32,9.20
2006,06,29,04,33,9.20
2006,06,29,04,34,9.20
2006,06,29,04,35,9.20
2006,06,29,04,36,9.20
2006,06,29,04,37,9.20
2006,06,29,04,38,9.20
2006,06,29,04,39,9.20
2006,06,29,04,40,9.20
2006,06,29,04,41,9.20
2006,06,29,04,42,9.20
2006,06,29,04,43,9.20
2006,06,29,04,44,9.30
2006,06,29,04,45,9.30
2006,06,29,04,46,9.30
2006,06,29,04,47,9.30
2006,06,29,04,48,9.20
2006,06,29,04,49,9.20
2006,06,29,04,50,9.20
2006,06,29,04,51,9.20
2006,06,29,04,52,9.20
2006,06,29,04,53,9.20
2006,06,29,04,54,9.20
2006,06,29,04,55,9.20
2006,06,29,04,56,9.20
2006,06,29,04,57,9.10
2006,06,29,04,58,9.10
2006,06,29,04,59,9.10
2006,06,29,05,00,9.10
2006,06,29,05,01,9.00
2006,06,29,05,02,9.00
2006,06,29,05,03,9.00
2006,06,29,05,04,9.00
2006,06,29,05,05,9.00
2006,06,29,05,06,8.90
2006,06,29,05,07,9.00
2006,06,29,05,08,9.00
2006,06,29,05,09,9.00
2006,06,29,05,10,9.00
2006,06,29,05,11,9.00
2006,06,29,05,12,9.00
2006,06,29,05,13,9.00
2006,06,29,05,14,9.00
2006,06,29,05,15,9.10
2006,06,29,05,16,9.10
2006,06,29,05,17,9.10
2006,06,29,05,18,9.10
2006,06,29,05,19,9.10
2006,06,29,05,20,9.10
2006,06,29,05,21,9.10
2006,06,29,05,22,9.20
2006,06,29,05,23,9.20
2006,06,29,05,24,9.20
2006,06,29,05,25,9.20
2006,06,29,05,26,9.20
2006,06,29,05,27,9.20
2006,06,29,05,28,9.20
2006,06,29,05,29,9.20
2006,06,29,05,30,9.10
2006,06,29,05,31,9.10
2006,06,29,05,32,9.10
2006,06,29,05,33,9.10
2006,06,29,05,34,9.10
2006,06,29,05,35,9.10
2006,06,29,05,36,9.10
2006,06,29,05,37,9.10
2006,06,29,05,38,9.10
2006,06,29,05,39,9.10
2006,06,29,05,40,9.10
2006,06,29,05,41,9.10
2006,06,29,05,42,9.10
2006,06,29,05,43,9.10
2006,06,29,05,44,9.00
2006,06,29,05,45,9.00
2006,06,29,05,46,9.00
2006,06,29,05,47,9.00
2006,06,29,05,48,9.00
2006,06,29,05,49,8.90
2006,06,29,05,50,8.90
2006,06,29,05,51,8.90
2006,06,29,05,52,8.90
2006,06,29,05,53,8.90
2006,06,29,05,54,8.80
2006,06,29,05,55,8.80
2006,06,29,05,56,8.90
2006,06,29,05,57,8.90
2006,06,29,05,58,8.90
2006,06,29,05,59,8.90
2006,06,29,06,00,9.00
2006,06,29,06,01,9.00
2006,06,29,06,02,9.00
2006,06,29,06,03,9.10
2006,06,29,06,04,9.10
2006,06,29,06,05,9.10
2006,06,29,06,06,9.20
2006,06,29,06,07,9.20
2006,06,29,06,08,9.20
2006,06,29,06,09,9.20
2006,06,29,06,10,9.20
2006,06,29,06,11,9.20
2006,06,29,06,12,9.30
2006,06,29,06,13,9.30
2006,06,29,06,14,9.30
2006,06,29,06,15,9.40
2006,06,29,06,16,9.50
2006,06,29,06,17,9.50
2006,06,29,06,18,9.60
2006,06,29,06,19,9.70
2006,06,29,06,20,9.80
2006,06,29,06,21,9.90
2006,06,29,06,22,10.00
2006,06,29,06,23,10.20
2006,06,29,06,24,10.30
2006,06,29,06,25,10.30
2006,06,29,06,26,10.40
2006,06,29,06,27,10.40
2006,06,29,06,28,10.40
2006,06,29,06,29,10.40
2006,06,29,06,30,10.40
2006,06,29,06,31,10.40
2006,06,29,06,32,10.40
2006,06,29,06,33,10.40
2006,06,29,06,34,10.40
2006,06,29,06,35,10.50
2006,06,29,06,36,10.60
2006,06,29,06,37,10.60
2006,06,29,06,38,10.60
2006,06,29,06,39,10.60
2006,06,29,06,40,10.60
2006,06,29,06,41,10.70
2006,06,29,06,42,10.70
2006,06,29,06,43,10.80
2006,06,29,06,44,10.80
2006,06,29,06,45,10.90
2006,06,29,06,46,11.00
2006,06,29,06,47,11.10
2006,06,29,06,48,11.20
2006,06,29,06,49,11.20
2006,06,29,06,50,11.30
2006,06,29,06,51,11.40
2006,06,29,06,52,11.50
2006,06,29,06,53,11.60
2006,06,29,06,54,11.60
2006,06,29,06,55,11.70
2006,06,29,06,56,11.70
2006,06,29,06,57,11.80
2006,06,29,06,58,11.80
2006,06,29,06,59,11.80
2006,06,29,07,00,11.80
2006,06,29,07,01,11.80
2006,06,29,07,02,11.90
2006,06,29,07,03,12.00
2006,06,29,07,04,12.00
2006,06,29,07,05,12.10
2006,06,29,07,06,12.10
2006,06,29,07,07,12.20
2006,06,29,07,08,12.20
2006,06,29,07,09,12.30
2006,06,29,07,10,12.30
2006,06,29,07,11,12.30
2006,06,29,07,12,12.30
2006,06,29,07,13,12.40
2006,06,29,07,14,12.40
2006,06,29,07,15,12.50
2006,06,29,07,16,12.50
2006,06,29,07,17,12.60
2006,06,29,07,18,12.70
2006,06,29,07,19,12.80
2006,06,29,07,20,12.80
2006,06,29,07,21,12.90
2006,06,29,07,22,13.00
2006,06,29,07,23,13.10
2006,06,29,07,24,13.20
2006,06,29,07,25,13.30
2006,06,29,07,26,13.30
2006,06,29,07,27,13.40
2006,06,29,07,28,13.50
2006,06,29,07,29,13.50
2006,06,29,07,30,13.60
2006,06,29,07,31,13.60
2006,06,29,07,32,13.70
2006,06,29,07,33,13.70
2006,06,29,07,34,13.80
2006,06,29,07,35,13.90
2006,06,29,07,36,13.90
2006,06,29,07,37,14.00
2006,06,29,07,38,14.10
2006,06,29,07,39,14.20
2006,06,29,07,40,14.20
2006,06,29,07,41,14.20
2006,06,29,07,42,14.30
2006,06,29,07,43,14.40
2006,06,29,07,44,14.50
2006,06,29,07,45,14.60
2006,06,29,07,46,14.60
2006,06,29,07,47,14.70
2006,06,29,07,48,14.80
2006,06,29,07,49,14.90
2006,06,29,07,50,14.90
2006,06,29,07,51,15.00
2006,06,29,07,52,15.10
2006,06,29,07,53,15.20
2006,06,29,07,54,15.30
2006,06,29,07,55,15.30
2006,06,29,07,56,15.40
2006,06,29,07,57,15.40
2006,06,29,07,58,15.50
2006,06,29,07,59,15.60
2006,06,29,08,00,15.70
2006,06,29,08,01,15.70
2006,06,29,08,02,15.70
2006,06,29,08,03,15.80
2006,06,29,08,04,15.90
2006,06,29,08,05,16.10
2006,06,29,08,06,16.20
2006,06,29,08,07,16.30
2006,06,29,08,08,16.40
2006,06,29,08,09,16.60
2006,06,29,08,10,16.70
2006,06,29,08,11,16.80
2006,06,29,08,12,16.90
2006,06,29,08,13,17.00
2006,06,29,08,14,17.10
2006,06,29,08,15,17.10
2006,06,29,08,16,17.20
2006,06,29,08,17,17.30
2006,06,29,08,18,17.30
2006,06,29,08,19,17.30
2006,06,29,08,20,17.40
2006,06,29,08,21,17.40
2006,06,29,08,22,17.50
2006,06,29,08,23,17.50
2006,06,29,08,24,17.60
2006,06,29,08,25,17.70
2006,06,29,08,26,17.80
2006,06,29,08,27,17.80
2006,06,29,08,28,17.80
2006,06,29,08,29,17.80
2006,06,29,08,30,17.80
2006,06,29,08,31,17.80
2006,06,29,08,32,17.80
2006,06,29,08,33,17.80
2006,06,29,08,34,17.80
2006,06,29,08,35,17.70
2006,06,29,08,36,17.70
2006,06,29,08,37,17.60
2006,06,29,08,38,17.60
2006,06,29,08,39,17.60
2006,06,29,08,40,17.60
2006,06,29,08,41,17.60
2006,06,29,08,42,17.60
2006,06,29,08,43,17.60
2006,06,29,08,44,17.50
2006,06,29,08,45,17.50
2006,06,29,08,46,17.60
2006,06,29,08,47,17.60
2006,06,29,08,48,17.60
2006,06,29,08,49,17.70
2006,06,29,08,50,17.90
2006,06,29,08,51,17.90
2006,06,29,08,52,18.10
2006,06,29,08,53,18.10
2006,06,29,08,54,18.00
2006,06,29,08,55,17.90
2006,06,29,08,56,17.90
2006,06,29,08,57,17.90
2006,06,29,08,58,17.90
2006,06,29,08,59,18.00
2006,06,29,09,00,18.10
2006,06,29,09,01,18.20
2006,06,29,09,02,18.30
2006,06,29,09,03,18.30
2006,06,29,09,04,18.40
2006,06,29,09,05,18.40
2006,06,29,09,06,18.30
2006,06,29,09,07,18.30
2006,06,29,09,08,18.30
2006,06,29,09,09,18.50
2006,06,29,09,10,18.50
2006,06,29,09,11,18.50
2006,06,29,09,12,18.50
2006,06,29,09,13,18.60
2006,06,29,09,14,18.60
2006,06,29,09,15,18.60
2006,06,29,09,16,18.60
2006,06,29,09,17,18.60
2006,06,29,09,18,18.60
2006,06,29,09,19,18.70
2006,06,29,09,20,18.60
2006,06,29,09,21,18.50
2006,06,29,09,22,18.40
2006,06,29,09,23,18.30
2006,06,29,09,24,18.30
2006,06,29,09,25,18.30
2006,06,29,09,26,18.20
2006,06,29,09,27,18.20
2006,06,29,09,28,18.20
2006,06,29,09,29,18.10
2006,06,29,09,30,18.20
2006,06,29,09,31,18.20
2006,06,29,09,32,18.20
2006,06,29,09,33,18.20
2006,06,29,09,34,18.30
2006,06,29,09,35,18.40
2006,06,29,09,36,18.50
2006,06,29,09,37,18.50
2006,06,29,09,38,18.50
2006,06,29,09,39,18.50
2006,06,29,09,40,18.50
2006,06,29,09,41,18.60
2006,06,29,09,42,18.70
2006,06,29,09,43,18.70
2006,06,29,09,44,18.80
2006,06,29,09,45,18.90
2006,06,29,09,46,18.90
2006,06,29,09,47,18.90
2006,06,29,09,48,18.90
2006,06,29,09,49,18.90
2006,06,29,09,50,18.80
2006,06,29,09,51,18.80
2006,06,29,09,52,18.80
2006,06,29,09,53,18.90
2006,06,29,09,54,18.90
2006,06,29,09,55,19.00
2006,06,29,09,56,19.10
2006,06,29,09,57,19.10
2006,06,29,09,58,19.10
2006,06,29,09,59,19.10
2006,06,29,10,00,19.00
2006,06,29,10,01,18.90
2006,06,29,10,02,18.70
2006,06,29,10,03,18.70
2006,06,29,10,04,18.70
2006,06,29,10,05,18.70
2006,06,29,10,06,18.80
2006,06,29,10,07,18.90
2006,06,29,10,08,18.90
2006,06,29,10,09,19.00
2006,06,29,10,10,19.10
2006,06,29,10,11,19.10
2006,06,29,10,12,19.10
2006,06,29,10,13,19.20
2006,06,29,10,14,19.40
2006,06,29,10,15,19.40
2006,06,29,10,16,19.40
2006,06,29,10,17,19.30
2006,06,29,10,18,19.30
2006,06,29,10,19,19.30
2006,06,29,10,20,19.30
2006,06,29,10,21,19.40
2006,06,29,10,22,19.40
2006,06,29,10,23,19.30
2006,06,29,10,24,19.20
2006,06,29,10,25,19.30
2006,06,29,10,26,19.30
2006,06,29,10,27,19.30
2006,06,29,10,28,19.30
2006,06,29,10,29,19.30
2006,06,29,10,30,19.40
2006,06,29,10,31,19.40
2006,06,29,10,32,19.50
2006,06,29,10,33,19.50
2006,06,29,10,34,19.60
2006,06,29,10,35,19.60
2006,06,29,10,36,19.60
2006,06,29,10,37,19.50
2006,06,29,10,38,19.40
2006,06,29,10,39,19.40
2006,06,29,10,40,19.40
2006,06,29,10,41,19.50
2006,06,29,10,42,19.60
2006,06,29,10,43,19.80
2006,06,29,10,44,19.90
2006,06,29,10,45,19.80
2006,06,29,10,46,19.90
2006,06,29,10,47,19.90
2006,06,29,10,48,19.90
2006,06,29,10,49,19.90
2006,06,29,10,50,19.80
2006,06,29,10,51,19.80
2006,06,29,10,52,19.80
2006,06,29,10,53,19.90
2006,06,29,10,54,19.90
2006,06,29,10,55,19.90
2006,06,29,10,56,19.90
2006,06,29,10,57,20.00
2006,06,29,10,58,20.10
2006,06,29,10,59,20.10
2006,06,29,11,00,20.10
2006,06,29,11,01,19.90
2006,06,29,11,02,19.90
2006,06,29,11,03,19.90
2006,06,29,11,04,19.90
2006,06,29,11,05,19.90
2006,06,29,11,06,19.90
2006,06,29,11,07,19.90
2006,06,29,11,08,20.10
2006,06,29,11,09,20.10
2006,06,29,11,10,20.10
2006,06,29,11,11,20.20
2006,06,29,11,12,20.20
2006,06,29,11,13,20.20
2006,06,29,11,14,20.30
2006,06,29,11,15,20.20
2006,06,29,11,16,20.10
2006,06,29,11,17,20.00
2006,06,29,11,18,19.90
2006,06,29,11,19,19.90
2006,06,29,11,20,19.90
2006,06,29,11,21,19.90
2006,06,29,11,22,19.90
2006,06,29,11,23,19.90
2006,06,29,11,24,19.80
2006,06,29,11,25,19.90
2006,06,29,11,26,19.90
2006,06,29,11,27,20.00
2006,06,29,11,28,20.20
2006,06,29,11,29,20.20
2006,06,29,11,30,20.30
2006,06,29,11,31,20.30
2006,06,29,11,32,20.60
2006,06,29,11,33,20.60
2006,06,29,11,34,20.50
2006,06,29,11,35,20.40
2006,06,29,11,36,20.30
2006,06,29,11,37,20.30
2006,06,29,11,38,20.20
2006,06,29,11,39,20.10
2006,06,29,11,40,20.10
2006,06,29,11,41,20.10
2006,06,29,11,42,20.20
2006,06,29,11,43,20.10
2006,06,29,11,44,20.10
2006,06,29,11,45,20.20
2006,06,29,11,46,20.20
2006,06,29,11,47,20.30
2006,06,29,11,48,20.30
2006,06,29,11,49,20.40
2006,06,29,11,50,20.50
2006,06,29,11,51,20.50
2006,06,29,11,52,20.50
2006,06,29,11,53,20.50
2006,06,29,11,54,20.50
2006,06,29,11,55,20.40
2006,06,29,11,56,20.50
2006,06,29,11,57,20.60
2006,06,29,11,58,20.70
2006,06,29,11,59,20.70
2006,06,29,12,00,20.70
2006,06,29,12,01,20.80
2006,06,29,12,02,20.90
2006,06,29,12,03,20.90
2006,06,29,12,04,20.80
2006,06,29,12,05,20.80
2006,06,29,12,06,20.80
2006,06,29,12,07,20.80
2006,06,29,12,08,20.80
2006,06,29,12,09,20.80
2006,06,29,12,10,20.80
2006,06,29,12,11,20.80
2006,06,29,12,12,20.90
2006,06,29,12,13,21.00
2006,06,29,12,14,21.10
2006,06,29,12,15,21.00
2006,06,29,12,16,21.10
2006,06,29,12,17,21.00
2006,06,29,12,18,20.90
2006,06,29,12,19,20.90
2006,06,29,12,20,20.90
2006,06,29,12,21,21.00
2006,06,29,12,22,21.00
2006,06,29,12,23,21.00
2006,06,29,12,24,21.20
2006,06,29,12,25,21.30
2006,06,29,12,26,21.30
2006,06,29,12,27,21.30
2006,06,29,12,28,21.20
2006,06,29,12,29,21.20
2006,06,29,12,30,21.20
2006,06,29,12,31,21.20
2006,06,29,12,32,21.20
2006,06,29,12,33,21.20
2006,06,29,12,34,21.20
2006,06,29,12,35,21.20
2006,06,29,12,36,21.20
2006,06,29,12,37,21.20
2006,06,29,12,38,21.10
2006,06,29,12,39,21.10
2006,06,29,12,40,21.20
2006,06,29,12,41,21.30
2006,06,29,12,42,21.30
2006,06,29,12,43,21.20
2006,06,29,12,44,21.20
2006,06,29,12,45,21.20
2006,06,29,12,46,21.30
2006,06,29,12,47,21.30
2006,06,29,12,48,21.30
2006,06,29,12,49,21.30
2006,06,29,12,50,21.30
2006,06,29,12,51,21.40
2006,06,29,12,52,21.40
2006,06,29,12,53,21.30
2006,06,29,12,54,21.30
2006,06,29,12,55,21.30
2006,06,29,12,56,21.50
2006,06,29,12,57,21.60
2006,06,29,12,58,21.70
2006,06,29,12,59,21.90
2006,06,29,13,00,22.00
2006,06,29,13,01,22.10
2006,06,29,13,02,22.10
2006,06,29,13,03,22.30
2006,06,29,13,04,22.50
2006,06,29,13,05,22.50
2006,06,29,13,06,22.50
2006,06,29,13,07,22.40
2006,06,29,13,08,22.20
2006,06,29,13,09,22.20
2006,06,29,13,10,22.20
2006,06,29,13,11,22.20
2006,06,29,13,12,22.20
2006,06,29,13,13,22.20
2006,06,29,13,14,22.20
2006,06,29,13,15,22.30
2006,06,29,13,16,22.40
2006,06,29,13,17,22.50
2006,06,29,13,18,22.70
2006,06,29,13,19,22.90
2006,06,29,13,20,22.90
2006,06,29,13,21,22.90
2006,06,29,13,22,22.80
2006,06,29,13,23,22.50
2006,06,29,13,24,22.60
2006,06,29,13,25,22.60
2006,06,29,13,26,22.60
2006,06,29,13,27,22.60
2006,06,29,13,28,22.70
2006,06,29,13,29,22.80
2006,06,29,13,30,22.90
2006,06,29,13,31,23.00
2006,06,29,13,32,23.20
2006,06,29,13,33,23.30
2006,06,29,13,34,23.30
2006,06,29,13,35,23.30
2006,06,29,13,36,23.30
2006,06,29,13,37,23.40
2006,06,29,13,38,23.50
2006,06,29,13,39,23.70
2006,06,29,13,40,23.80
2006,06,29,13,41,24.00
2006,06,29,13,42,24.10
2006,06,29,13,43,24.00
2006,06,29,13,44,23.90
2006,06,29,13,45,23.90
2006,06,29,13,46,24.00
2006,06,29,13,47,24.10
2006,06,29,13,48,24.10
2006,06,29,13,49,24.10
2006,06,29,13,50,24.10
2006,06,29,13,51,24.10
2006,06,29,13,52,24.00
2006,06,29,13,53,24.00
2006,06,29,13,54,24.10
2006,06,29,13,55,24.10
2006,06,29,13,56,24.10
2006,06,29,13,57,24.10
2006,06,29,13,58,24.10
2006,06,29,13,59,24.30
2006,06,29,14,00,24.40
2006,06,29,14,01,24.40
2006,06,29,14,02,24.50
2006,06,29,14,03,24.40
2006,06,29,14,04,24.50
2006,06,29,14,05,24.50
2006,06,29,14,06,24.50
2006,06,29,14,07,24.50
2006,06,29,14,08,24.20
2006,06,29,14,09,24.10
2006,06,29,14,10,24.00
2006,06,29,14,11,24.00
2006,06,29,14,12,24.10
2006,06,29,14,13,24.10
2006,06,29,14,14,24.00
2006,06,29,14,15,23.90
2006,06,29,14,16,23.70
2006,06,29,14,17,23.50
2006,06,29,14,18,23.50
2006,06,29,14,19,23.60
2006,06,29,14,20,23.40
2006,06,29,14,21,23.30
2006,06,29,14,22,23.30
2006,06,29,14,23,23.30
2006,06,29,14,24,23.30
2006,06,29,14,25,23.30
2006,06,29,14,26,23.30
2006,06,29,14,27,23.30
2006,06,29,14,28,23.30
2006,06,29,14,29,23.30
2006,06,29,14,30,23.20
2006,06,29,14,31,23.20
2006,06,29,14,32,23.20
2006,06,29,14,33,23.20
2006,06,29,14,34,23.20
2006,06,29,14,35,23.10
2006,06,29,14,36,23.10
2006,06,29,14,37,23.20
2006,06,29,14,38,23.10
2006,06,29,14,39,22.90
2006,06,29,14,40,22.90
2006,06,29,14,41,23.00
2006,06,29,14,42,23.20
2006,06,29,14,43,23.30
2006,06,29,14,44,23.40
2006,06,29,14,45,23.40
2006,06,29,14,46,23.50
2006,06,29,14,47,23.70
2006,06,29,14,48,23.80
2006,06,29,14,49,23.80
2006,06,29,14,50,23.80
2006,06,29,14,51,23.80
2006,06,29,14,52,23.80
2006,06,29,14,53,23.80
2006,06,29,14,54,23.80
2006,06,29,14,55,23.80
2006,06,29,14,56,23.70
2006,06,29,14,57,23.70
2006,06,29,14,58,23.80
2006,06,29,14,59,23.80
2006,06,29,15,00,23.90
2006,06,29,15,01,24.00
2006,06,29,15,02,24.10
2006,06,29,15,03,24.20
2006,06,29,15,04,24.20
2006,06,29,15,05,24.20
2006,06,29,15,06,24.20
2006,06,29,15,07,24.20
2006,06,29,15,08,24.30
2006,06,29,15,09,24.40
2006,06,29,15,10,24.50
2006,06,29,15,11,24.50
2006,06,29,15,12,24.50
2006,06,29,15,13,24.10
2006,06,29,15,14,23.80
2006,06,29,15,15,23.70
2006,06,29,15,16,23.70
2006,06,29,15,17,23.80
2006,06,29,15,18,23.80
2006,06,29,15,19,23.80
2006,06,29,15,20,23.70
2006,06,29,15,21,23.90
2006,06,29,15,22,24.10
2006,06,29,15,23,24.10
2006,06,29,15,24,24.00
2006,06,29,15,25,24.00
2006,06,29,15,26,23.90
2006,06,29,15,27,24.10
2006,06,29,15,28,24.10
2006,06,29,15,29,24.30
2006,06,29,15,30,24.30
2006,06,29,15,31,24.40
2006,06,29,15,32,24.40
2006,06,29,15,33,24.40
2006,06,29,15,34,24.40
2006,06,29,15,35,24.30
2006,06,29,15,36,24.40
2006,06,29,15,37,24.50
2006,06,29,15,38,24.60
2006,06,29,15,39,24.70
2006,06,29,15,40,24.70
2006,06,29,15,41,25.00
2006,06,29,15,42,25.20
2006,06,29,15,43,25.30
2006,06,29,15,44,25.40
2006,06,29,15,45,25.40
2006,06,29,15,46,25.30
2006,06,29,15,47,25.20
2006,06,29,15,48,25.10
2006,06,29,15,49,25.00
2006,06,29,15,50,24.90
2006,06,29,15,51,24.90
2006,06,29,15,52,24.90
2006,06,29,15,53,24.70
2006,06,29,15,54,24.70
2006,06,29,15,55,24.80
2006,06,29,15,56,24.80
2006,06,29,15,57,24.60
2006,06,29,15,58,24.60
2006,06,29,15,59,24.60
2006,06,29,16,00,24.60
2006,06,29,16,01,24.70
2006,06,29,16,02,24.70
2006,06,29,16,03,24.60
2006,06,29,16,04,24.50
2006,06,29,16,05,24.50
2006,06,29,16,06,24.50
2006,06,29,16,07,24.50
2006,06,29,16,08,24.70
2006,06,29,16,09,24.70
2006,06,29,16,10,24.80
2006,06,29,16,11,24.90
2006,06,29,16,12,24.80
2006,06,29,16,13,24.90
2006,06,29,16,14,25.00
2006,06,29,16,15,25.10
2006,06,29,16,16,25.10
2006,06,29,16,17,25.20
2006,06,29,16,18,25.30
2006,06,29,16,19,25.20
2006,06,29,16,20,25.20
2006,06,29,16,21,25.20
2006,06,29,16,22,25.20
2006,06,29,16,23,25.20
2006,06,29,16,24,25.20
2006,06,29,16,25,25.20
2006,06,29,16,26,25.20
2006,06,29,16,27,25.10
2006,06,29,16,28,25.00
2006,06,29,16,29,25.00
2006,06,29,16,30,25.10
2006,06,29,16,31,25.10
2006,06,29,16,32,25.10
2006,06,29,16,33,25.20
2006,06,29,16,34,25.20
2006,06,29,16,35,25.20
2006,06,29,16,36,25.20
2006,06,29,16,37,25.10
2006,06,29,16,38,25.10
2006,06,29,16,39,25.20
2006,06,29,16,40,25.20
2006,06,29,16,41,25.20
2006,06,29,16,42,25.20
2006,06,29,16,43,25.20
2006,06,29,16,44,25.10
2006,06,29,16,45,25.00
2006,06,29,16,46,25.00
2006,06,29,16,47,25.00
2006,06,29,16,48,25.10
2006,06,29,16,49,25.10
2006,06,29,16,50,25.20
2006,06,29,16,51,25.10
2006,06,29,16,52,25.00
2006,06,29,16,53,25.00
2006,06,29,16,54,25.00
2006,06,29,16,55,25.00
2006,06,29,16,56,24.70
2006,06,29,16,57,24.80
2006,06,29,16,58,24.60
2006,06,29,16,59,24.50
2006,06,29,17,00,24.40
2006,06,29,17,01,24.30
2006,06,29,17,02,24.20
2006,06,29,17,03,24.10
2006,06,29,17,04,24.20
2006,06,29,17,05,24.20
2006,06,29,17,06,24.10
2006,06,29,17,07,24.10
2006,06,29,17,08,24.00
2006,06,29,17,09,23.80
2006,06,29,17,10,23.80
2006,06,29,17,11,23.60
2006,06,29,17,12,23.40
2006,06,29,17,13,23.30
2006,06,29,17,14,23.10
2006,06,29,17,15,22.90
2006,06,29,17,16,22.80
2006,06,29,17,17,22.80
2006,06,29,17,18,22.70
2006,06,29,17,19,22.60
2006,06,29,17,20,22.50
2006,06,29,17,21,22.50
2006,06,29,17,22,22.60
2006,06,29,17,23,22.50
2006,06,29,17,24,22.50
2006,06,29,17,25,22.40
2006,06,29,17,26,22.30
2006,06,29,17,27,22.20